Wind_Speed
117 107 100 101 90 83 83 86 96 94 79 81 83 89 89 91 87 78 72 78 66 53 54 56 49 49 52 54 56 52 52 47 31 23 22 21 18 19 18 22 24 22 18
122 118 113 109 106 102 100 105 104 101 97 87 84 88 88 90 85 77 74 69 53 51 55 50 48 49 52 55 53 50 50 44 27 21 21 22 20 18 20 21 27 31 25
118 114 110 106 103 98 97 98 101 107 103 97 96 92 83 78 73 64 63 53 50 50 51 47 47 50 52 54 50 52 46 35 24 22 23 22 21 21 20 21 26 29 30
113 111 106 101 99 97 96 93 91 87 84 81 78 74 71 65 59 55 52 47 48 48 45 45 47 49 53 50 51 48 40 29 26 26 26 26 26 24 21 24 23 29 34
107 108 106 102 99 94 91 90 88 84 79 77 72 70 66 61 54 53 46 47 45 43 43 44 48 50 50 47 48 44 35 33 36 34 33 32 31 30 27 25 26 22 29
99 102 103 103 100 93 90 88 85 80 79 74 70 63 59 54 52 45 44 41 40 41 43 45 48 49 44 48 44 38 36 38 39 41 37 32 33 31 31 27 27 25 27
74 85 93 97 98 95 91 87 78 74 72 69 64 61 57 47 39 38 34 38 38 39 42 45 47 43 45 41 36 37 39 42 41 35 32 31 31 26 25 25 27 27 31
56 60 64 69 73 80 82 80 76 76 74 66 61 53 43 36 34 36 38 38 38 41 42 44 42 40 38 33 33 37 41 38 29 21 22 23 23 22 20 25 27 26 33
35 43 40 39 40 44 49 51 53 53 52 49 44 37 34 34 35 37 34 37 40 41 41 39 35 36 30 29 32 36 35 29 24 10 14 17 22 21 21 25 28 30 32
41 44 37 36 38 41 41 43 42 40 39 36 34 33 32 33 35 32 33 36 37 38 36 31 35 30 23 27 30 27 24 20 15 7 10 19 24 25 24 25 31 29 31
42 44 42 39 36 35 35 36 38 37 36 34 32 31 31 30 29 30 33 36 34 32 29 30 31 23 21 25 24 17 14 14 11 8 8 12 14 18 20 26 34 30 30
46 46 42 40 38 39 42 42 41 38 32 27 24 23 25 26 29 30 33 31 29 26 25 30 26 19 19 22 13 8 8 10 8 6 6 10 17 24 24 24 32 29 28
51 47 53 54 52 49 43 37 31 31 26 20 17 18 20 26 28 29 28 27 24 23 25 29 21 15 16 15 6 3 8 9 6 9 8 6 6 12 24 25 28 28 31
67 64 60 52 44 40 34 28 23 22 18 14 15 19 21 23 24 25 24 23 22 22 27 24 16 12 14 9 5 1 5 9 11 11 10 11 4 4 9 25 27 30 28
71 64 54 47 41 37 36 26 23 14 8 8 12 17 19 21 22 21 20 20 22 24 26 18 13 12 13 8 9 4 3 7 10 11 11 11 9 2 3 10 20 30 29
68 62 59 43 37 34 31 21 14 8 5 3 8 13 14 16 17 18 20 22 24 23 19 16 12 12 12 11 12 7 4 2 8 8 10 10 9 7 2 7 8 17 29
63 62 56 54 34 28 22 15 8 5 3 3 7 11 13 14 17 20 23 24 23 20 17 16 13 11 11 14 13 10 5 2 3 5 6 9 9 8 7 8 12 15 19
53 51 46 37 29 20 13 8 6 5 2 6 9 12 14 17 20 22 24 22 20 19 20 16 12 9 8 15 12 9 6 5 6 6 7 9 9 8 6 8 10 9 12
47 40 34 25 21 15 8 8 6 4 4 8 10 13 16 18 18 21 21 19 20 20 23 19 13 9 9 16 11 6 7 5 2 1 2 3 5 7 7 5 9 13 17
45 37 25 21 17 11 8 4 2 6 5 9 11 13 14 15 18 18 17 15 18 23 24 21 16 14 13 13 14 11 10 6 6 6 5 3 3 3 4 1 2 5 7
31 25 21 18 20 19 8 5 6 8 9 10 11 12 14 16 16 14 12 15 21 26 26 23 22 20 16 15 13 13 12 12 11 9 9 9 10 10 10 11 11 11 14
31 29 27 23 20 16 9 10 9 9 8 10 9 11 13 13 11 9 9 18 24 28 32 28 25 24 21 19 16 16 15 15 15 15 15 16 16 16 18 18 18 19 21
29 29 23 22 21 18 14 11 10 8 8 7 5 5 7 6 6 5 3 16 23 27 32 31 29 27 25 24 22 20 20 21 21 22 22 24 24 25 24 25 26 27 30
27 26 24 20 20 19 17 15 11 7 2 2 1 3 4 4 4 4 2 5 18 22 25 30 28 27 27 26 26 26 25 26 27 28 30 30 31 32 31 31 33 37 38
28 26 23 24 23 22 21 14 11 6 3 4 2 5 13 11 9 6 4 2 5 12 18 20 27 29 29 29 28 29 31 32 32 31 31 32 33 35 38 39 40 41 41
26 24 24 27 26 23 22 15 10 7 5 3 0 1 8 12 9 6 3 1 5 8 10 12 15 18 21 24 26 27 28 30 30 31 32 30 31 33 33 34 34 34 36
Wind_Direction
248 245 243 248 245 240 242 246 253 256 258 267 271 277 281 285 290 292 298 300 295 290 293 295 300 303 305 311 315 315 316 312 298 280 298 303 317 280 247 226 221 223 228
249 249 249 250 250 249 249 250 256 258 263 268 267 272 276 277 283 287 294 292 283 287 290 294 299 301 306 313 313 313 312 307 291 280 280 290 292 302 257 240 226 227 234
251 251 251 252 252 253 253 254 256 257 262 263 267 270 274 276 281 285 287 282 280 286 289 295 296 302 311 311 311 312 307 301 290 283 277 285 294 283 273 249 233 230 233
249 250 250 251 252 253 254 256 258 261 263 266 266 269 271 276 279 282 281 277 280 284 291 292 299 307 311 309 311 307 300 293 293 289 280 281 283 282 281 255 239 232 227
244 246 247 248 249 250 252 254 256 258 261 263 266 268 270 273 275 278 275 274 278 283 285 294 302 308 306 309 308 301 297 294 294 290 282 276 275 274 275 265 242 224 216
240 242 244 246 247 248 250 252 254 257 259 260 262 263 266 268 273 270 268 269 276 281 288 296 303 303 305 308 303 300 304 300 294 286 279 267 270 269 265 259 239 233 211
230 235 239 242 245 248 249 251 252 253 255 256 257 259 263 264 257 257 258 266 275 282 291 298 300 302 309 305 302 306 306 301 298 282 268 258 261 257 247 241 234 223 204
224 230 234 238 241 243 245 247 247 248 250 251 253 252 248 240 240 243 255 265 274 283 292 296 297 306 305 301 308 310 309 311 313 283 252 238 240 240 239 233 225 219 205
207 214 215 220 224 226 229 228 230 233 235 235 233 224 220 226 230 242 256 265 275 284 291 292 300 306 298 302 311 310 310 315 321 276 222 215 235 242 243 230 218 221 213
202 216 205 196 202 206 210 214 215 214 210 205 200 203 216 221 232 246 259 271 277 283 286 295 306 299 295 307 310 311 315 315 323 311 243 236 240 248 242 225 217 217 213
186 189 185 186 186 189 194 188 183 179 179 182 193 204 214 228 241 253 266 270 276 281 287 301 302 293 297 308 308 317 331 318 320 317 262 242 238 242 230 231 212 212 209
160 166 167 170 167 164 159 159 163 164 171 178 193 211 226 236 250 257 262 269 272 278 289 300 295 278 300 309 297 325 356 355 339 302 282 274 248 232 228 224 208 209 207
152 149 142 140 143 145 147 147 151 149 161 163 181 206 226 241 249 256 262 268 273 278 293 296 280 272 296 297 277 16 29 22 29 30 9 293 292 251 230 222 213 209 209
135 135 135 132 128 129 133 146 153 153 161 174 201 223 234 242 252 257 264 269 274 284 292 288 256 269 295 273 221 180 30 32 36 27 16 9 311 306 225 214 215 211 213
133 131 129 130 138 148 152 141 146 144 145 192 221 232 241 248 257 263 267 274 280 283 287 266 239 262 287 250 199 198 67 31 26 28 32 19 14 11 218 199 208 208 202
135 133 132 133 151 145 151 141 132 130 145 199 239 239 253 260 261 266 274 278 279 280 267 228 235 251 276 224 197 194 180 260 25 24 32 32 33 44 106 162 167 189 201
138 141 144 157 152 144 142 150 147 168 197 255 266 271 271 266 267 274 278 278 274 260 240 211 226 246 263 206 191 180 187 149 53 55 48 49 48 64 79 125 155 163 173
142 140 139 141 145 146 141 138 190 214 309 292 283 280 273 272 277 281 284 277 258 242 206 202 212 236 220 181 187 181 197 154 134 106 84 74 57 58 112 137 160 165 179
150 137 138 138 139 149 165 195 226 280 295 286 276 273 276 282 285 285 277 264 237 213 194 192 198 204 184 179 190 204 211 189 161 220 329 49 64 73 74 101 165 166 175
153 152 150 146 167 177 203 201 286 291 278 267 263 270 281 288 286 274 261 246 217 199 190 191 196 197 190 195 211 225 222 214 239 275 269 294 319 333 347 340 185 190 199
155 158 166 182 197 198 220 244 254 253 244 248 254 275 285 288 282 268 252 220 202 196 191 199 205 208 206 204 208 213 222 237 256 255 259 255 273 281 284 272 259 256 261
173 181 189 185 193 211 198 210 219 223 238 249 266 284 287 289 279 273 242 202 198 200 200 206 212 218 221 223 223 229 239 245 252 263 273 270 278 277 283 280 262 258 264
181 182 183 196 206 198 187 186 201 226 239 271 292 303 309 298 295 297 268 201 201 205 205 212 219 227 232 240 247 248 248 255 260 268 272 272 274 276 274 268 263 260 274
174 184 180 190 182 171 170 176 189 202 211 63 42 4 24 23 26 23 25 207 211 210 215 218 224 233 239 244 248 251 255 265 271 275 276 278 274 273 272 269 276 277 278
185 193 180 181 170 169 170 174 182 171 153 121 83 54 42 39 44 53 76 116 206 221 230 234 233 237 245 251 257 264 269 271 272 274 276 277 277 274 273 275 276 275 276
167 171 183 175 170 177 179 173 166 159 175 171 113 49 14 28 28 23 38 146 187 202 219 231 238 243 248 253 257 264 268 271 274 275 278 280 279 280 280 281 283 283 282
Height
10624 10640 10655 10665 10680 10691 10699 10699 10697 10705 10716 10720 10724 10725 10727 10728 10728 10729 10726 10726 10724 10717 10712 10708 10703 10697 10692 10687 10681 10676 10670 10665 10661 10659 10656 10654 10652 10651 10652 10654 10657 10659 10660
10600 10618 10632 10647 10660 10674 10683 10684 10679 10696 10702 10709 10713 10715 10718 10718 10718 10718 10717 10716 10713 10706 10703 10699 10694 10689 10684 10678 10672 10667 10661 10656 10653 10652 10650 10649 10648 10647 10647 10648 10651 10653 10655
10571 10589 10607 10623 10637 10650 10659 10662 10669 10679 10689 10696 10702 10703 10706 10706 10708 10706 10707 10706 10700 10697 10694 10690 10684 10680 10675 10669 10663 10658 10652 10648 10646 10645 10643 10642 10642 10641 10641 10642 10644 10646 10650
10547 10562 10581 10599 10611 10623 10632 10642 10655 10663 10673 10680 10684 10689 10690 10695 10695 10695 10695 10694 10691 10687 10685 10680 10676 10671 10666 10660 10654 10648 10643 10640 10638 10637 10637 10635 10635 10635 10635 10636 10638 10639 10644
10527 10543 10559 10573 10586 10601 10614 10625 10638 10649 10658 10663 10669 10672 10677 10681 10683 10685 10684 10683 10680 10678 10675 10672 10666 10662 10657 10650 10644 10639 10634 10631 10628 10626 10626 10626 10626 10627 10628 10629 10632 10634 10638
10507 10521 10536 10552 10566 10585 10597 10609 10622 10634 10642 10649 10654 10660 10664 10668 10672 10673 10673 10672 10670 10669 10667 10663 10657 10653 10647 10641 10635 10629 10624 10619 10615 10613 10613 10615 10616 10618 10620 10622 10624 10629 10632
10489 10501 10517 10534 10549 10566 10582 10593 10608 10618 10625 10631 10639 10646 10651 10658 10661 10664 10663 10662 10662 10661 10659 10653 10650 10644 10638 10631 10625 10620 10615 10609 10602 10597 10599 10603 10606 10609 10611 10614 10617 10622 10627
10478 10491 10505 10520 10536 10550 10565 10579 10591 10600 10607 10617 10626 10634 10641 10647 10651 10653 10653 10654 10654 10653 10649 10645 10641 10635 10629 10623 10619 10613 10606 10597 10590 10586 10589 10593 10598 10601 10604 10607 10611 10615 10619
10469 10481 10497 10512 10526 10539 10552 10563 10573 10583 10594 10604 10613 10623 10632 10638 10640 10641 10645 10646 10646 10644 10640 10637 10632 10627 10621 10618 10613 10607 10598 10591 10585 10583 10585 10589 10592 10596 10599 10601 10606 10609 10614
10465 10478 10493 10503 10515 10528 10540 10552 10563 10575 10585 10597 10607 10616 10624 10628 10631 10635 10637 10638 10637 10635 10632 10628 10624 10619 10615 10612 10608 10601 10594 10588 10585 10583 10584 10587 10588 10590 10592 10596 10599 10603 10608
10464 10476 10487 10496 10509 10523 10536 10547 10559 10571 10583 10594 10602 10610 10614 10619 10624 10627 10630 10629 10628 10626 10622 10620 10616 10613 10611 10607 10603 10598 10592 10588 10585 10583 10582 10583 10583 10585 10586 10588 10593 10599 10603
10457 10472 10483 10495 10508 10522 10534 10547 10561 10571 10581 10591 10597 10603 10609 10614 10617 10620 10620 10620 10619 10617 10614 10613 10610 10608 10607 10603 10599 10597 10593 10589 10585 10583 10581 10580 10579 10579 10582 10584 10588 10593 10599
10454 10471 10484 10499 10515 10528 10540 10551 10561 10569 10581 10588 10593 10599 10604 10608 10611 10611 10611 10610 10610 10609 10607 10606 10605 10604 10602 10599 10597 10595 10593 10591 10587 10584 10581 10578 10576 10575 10577 10581 10585 10589 10594
10460 10476 10491 10508 10520 10529 10539 10553 10563 10573 10579 10584 10589 10594 10599 10601 10602 10602 10602 10602 10602 10601 10601 10600 10599 10599 10598 10596 10595 10595 10593 10591 10587 10584 10581 10578 10575 10574 10574 10576 10581 10586 10590
10465 10481 10494 10509 10523 10534 10544 10554 10564 10570 10575 10581 10585 10589 10590 10591 10593 10594 10594 10594 10594 10595 10595 10594 10594 10595 10595 10594 10594 10594 10593 10592 10589 10586 10582 10580 10576 10574 10574 10574 10577 10582 10587
10470 10482 10494 10513 10529 10537 10546 10553 10561 10566 10571 10575 10579 10581 10582 10584 10585 10585 10585 10587 10588 10588 10589 10589 10590 10591 10591 10591 10592 10593 10592 10592 10590 10587 10584 10582 10580 10577 10576 10576 10577 10580 10586
10479 10487 10498 10510 10529 10537 10543 10552 10559 10563 10567 10569 10572 10574 10575 10576 10577 10578 10579 10580 10580 10581 10583 10585 10586 10587 10587 10588 10591 10591 10591 10591 10590 10588 10586 10584 10583 10581 10580 10580 10582 10585 10589
10489 10496 10506 10516 10527 10536 10544 10550 10556 10558 10560 10563 10564 10566 10568 10569 10571 10571 10571 10572 10573 10575 10578 10581 10583 10584 10584 10586 10589 10590 10591 10591 10591 10590 10589 10588 10587 10586 10585 10585 10587 10589 10591
10493 10500 10510 10519 10528 10537 10542 10547 10550 10552 10554 10557 10560 10562 10563 10564 10564 10564 10564 10565 10566 10569 10574 10578 10581 10583 10583 10585 10588 10589 10589 10590 10591 10591 10591 10590 10589 10589 10589 10589 10590 10591 10592
10500 10505 10513 10521 10529 10535 10541 10543 10546 10549 10551 10554 10557 10558 10558 10558 10558 10558 10557 10559 10561 10566 10571 10575 10579 10581 10582 10584 10585 10587 10588 10589 10590 10591 10591 10591 10591 10591 10592 10592 10593 10594 10595
10502 10510 10518 10524 10530 10535 10537 10541 10544 10547 10550 10552 10553 10554 10554 10554 10553 10552 10551 10553 10556 10562 10568 10572 10575 10577 10579 10581 10583 10585 10586 10587 10588 10589 10590 10590 10590 10591 10591 10592 10592 10593 10593
10506 10514 10521 10525 10529 10532 10536 10540 10543 10545 10547 10549 10551 10552 10551 10551 10549 10548 10548 10549 10553 10558 10563 10567 10570 10573 10575 10577 10580 10582 10583 10584 10585 10586 10586 10586 10586 10586 10587 10588 10589 10589 10589
10508 10514 10519 10523 10527 10530 10534 10537 10540 10543 10546 10548 10549 10549 10548 10548 10547 10546 10545 10547 10550 10554 10559 10563 10566 10569 10572 10574 10576 10578 10579 10579 10580 10580 10580 10580 10580 10580 10580 10580 10581 10581 10581
10507 10512 10515 10520 10524 10527 10531 10535 10539 10543 10546 10547 10548 10548 10547 10546 10545 10545 10546 10548 10551 10555 10558 10562 10564 10567 10569 10570 10572 10573 10573 10574 10574 10573 10572 10572 10572 10572 10571 10571 10571 10570 10569
10506 10511 10514 10519 10522 10526 10530 10535 10540 10542 10543 10545 10547 10548 10548 10546 10546 10547 10548 10549 10552 10554 10557 10559 10561 10563 10565 10566 10567 10567 10567 10567 10566 10565 10564 10563 10562 10562 10561 10560 10559 10558 10557
10505 10509 10515 10518 10521 10526 10531 10535 10538 10540 10542 10544 10545 10547 10547 10547 10548 10549 10550 10550 10551 10552 10553 10555 10557 10558 10560 10560 10560 10560 10560 10559 10558 10557 10556 10554 10552 10551 10550 10550 10548 10547 10546